Weather History for Lewisburg, WV

Change the Weather History Date:

Tuesday, August 26, 2014

  Actual Average Record
Temperature  
Mean Temperature 66 °F 68 °F  
Max Temperature 79 °F 80 °F 90 °F (1998)
Min Temperature 52 °F 56 °F 46 °F (2013)
Degree Days  
Heating Degree Days 0    
Month to date heating degree days 5  
Since 1 June heating degree days 35  
Since 1 July heating degree days 22  
Cooling Degree Days 1    
Month to date cooling degree days 105  
Year to date cooling degree days 478  
Since 1 June cooling degree days 445  
Growing Degree Days 16 (Base 50)    
Moisture  
Dew Point 53 °F    
Average Humidity 65    
Maximum Humidity 96    
Minimum Humidity 33    
Precipitation  
Precipitation 0.00 in 0.09 in 0.43 in (1967)
Month to date precipitation 2.67 2.70  
Year to date precipitation 18.61 27.63  
Snow  
Snow 0.00 in - - ()
Month to date snowfall 0.0  
Since 1 June snowfall 0.0  
Since 1 July snowfall 0.0  
Snow Depth 0.00 in    
Sea Level Pressure  
Sea Level Pressure 30.22 in    
Wind  
Wind Speed 1 mph (NE)    
Max Wind Speed 7 mph    
Max Gust Speed -    
Visibility 7 miles    
Events Fog    
T = Trace of Precipitation, MM = Missing Value Source: NWS Daily Summary

Daily Weather History Graph

Daily Weather History Graph

Search for Another Location

Airport:

Trip Planner

Search our weather history database for the weather conditions in past years. The results will help you decide how hot, cold, wet, or windy it might be!

Date:

Astronomy

Aug. 26, 2014 Rise Set
Actual Time 6:46 AM EDT 7:59 PM EDT
Civil Twilight 6:19 AM EDT 8:26 PM EDT
Nautical Twilight 5:46 AM EDT 8:59 PM EDT
Astronomical Twilight 5:12 AM EDT 9:33 PM EDT
Moon 7:43 AM EDT (8/26) 8:22 PM EDT (8/26)
Length of Visible Light 14h 07m
Length of Day
13h 13m
New Moon, 1% of the Moon is Illuminated
Aug 26
New Moon
Sep 2
First Quarter
Sep 8
Full
Sep 15
Last Quarter
Sep 24
New

Hourly Weather History & Observations

Time (EDT) Temp. Dew Point Humidity Pressure Visibility Wind Dir Wind Speed Gust Speed Precip Events Conditions
12:15 AM 57.7 °F 55.4 °F 92% 30.22 in 10.0 mi Calm Calm - N/A   Clear
12:35 AM 57.0 °F 54.9 °F 92% 30.23 in 7.0 mi Calm Calm - N/A   Clear
12:55 AM 57.6 °F 55.4 °F 92% 30.23 in 10.0 mi Calm Calm - N/A   Clear
1:15 AM 56.5 °F 54.5 °F 93% 30.23 in 7.0 mi Calm Calm - N/A   Clear
1:35 AM 56.7 °F 54.7 °F 93% 30.23 in 7.0 mi Calm Calm - N/A   Clear
1:55 AM 56.7 °F 54.5 °F 92% 30.23 in 7.0 mi Calm Calm - N/A   Clear
2:15 AM 55.6 °F 53.6 °F 93% 30.22 in 10.0 mi Calm Calm - N/A   Clear
2:35 AM 55.0 °F 52.9 °F 92% 30.22 in 5.0 mi NNE 3.5 mph - N/A   Scattered Clouds
2:55 AM 54.9 °F 52.7 °F 92% 30.21 in 0.2 mi Calm Calm - N/A Fog Fog
3:15 AM 53.6 °F 51.8 °F 94% 30.21 in 0.2 mi Calm Calm - N/A Fog Fog
3:35 AM 54.9 °F 53.1 °F 94% 30.22 in 0.2 mi NNE 3.5 mph - N/A Fog Fog
3:55 AM 54.5 °F 52.7 °F 94% 30.21 in 0.2 mi Calm Calm - N/A Fog Fog
4:15 AM 54.3 °F 52.5 °F 94% 30.21 in 0.2 mi NNE 4.6 mph - N/A Fog Fog
4:35 AM 54.5 °F 52.7 °F 94% 30.22 in 0.2 mi Calm Calm - N/A Fog Fog
4:55 AM 54.0 °F 52.2 °F 94% 30.22 in 0.2 mi NNE 4.6 mph - N/A Fog Fog
5:15 AM 53.1 °F 51.3 °F 94% 30.22 in 0.2 mi Calm Calm - N/A Fog Fog
5:35 AM 53.1 °F 51.3 °F 94% 30.22 in 0.2 mi NNE 3.5 mph - N/A Fog Fog
5:55 AM 53.1 °F 51.3 °F 94% 30.22 in 0.2 mi NNE 3.5 mph - N/A Fog Fog
6:15 AM 52.3 °F 50.7 °F 94% 30.23 in 0.2 mi NNE 4.6 mph - N/A Fog Fog
6:35 AM 52.2 °F 50.5 °F 94% 30.23 in 0.2 mi NNE 4.6 mph - N/A Fog Fog
6:55 AM 52.0 °F 50.4 °F 94% 30.23 in 0.2 mi NNE 6.9 mph - N/A Fog Fog
7:15 AM 52.2 °F 50.5 °F 94% 30.24 in 0.2 mi Calm Calm - N/A Fog Fog
7:35 AM 52.7 °F 50.9 °F 94% 30.24 in 0.2 mi Calm Calm - N/A Fog Fog
7:55 AM 53.2 °F 51.6 °F 94% 30.25 in 0.2 mi NE 3.5 mph - N/A Fog Fog
8:15 AM 53.6 °F 52.0 °F 94% 30.25 in 0.2 mi Calm Calm - N/A Fog Fog
8:35 AM 55.4 °F 53.6 °F 94% 30.26 in 0.2 mi NNE 4.6 mph - N/A Fog Fog
8:55 AM 55.4 °F 53.6 °F 94% 30.26 in 0.2 mi Calm Calm - N/A Fog Fog
9:15 AM 56.5 °F 54.7 °F 94% 30.26 in 0.5 mi NNE 4.6 mph - N/A Fog Fog
9:35 AM 57.2 °F 55.6 °F 94% 30.26 in 3.0 mi NNE 3.5 mph - N/A   Overcast
9:55 AM 58.8 °F 57.0 °F 94% 30.27 in 4.0 mi Calm Calm - N/A   Overcast
10:55 AM 67.1 °F 59.0 °F 75% 30.26 in 10.0 mi East 3.5 mph - N/A   Clear
11:15 AM 69.6 °F 55.8 °F 61% 30.27 in 10.0 mi ESE 3.5 mph - N/A   Clear
11:35 AM 70.7 °F 54.1 °F 56% 30.27 in 10.0 mi SSE 4.6 mph - N/A   Clear
11:55 AM 71.1 °F 52.9 °F 53% 30.26 in 10.0 mi Calm Calm - N/A   Clear
12:15 PM 71.4 °F 52.7 °F 52% 30.26 in 10.0 mi Calm Calm - N/A   Clear
12:35 PM 73.9 °F 52.7 °F 47% 30.26 in 10.0 mi Calm Calm - N/A   Clear
12:55 PM 73.9 °F 54.5 °F 51% 30.25 in 10.0 mi Calm Calm - N/A   Clear
1:15 PM 74.3 °F 53.8 °F 49% 30.25 in 10.0 mi Calm Calm - N/A   Clear
1:35 PM 75.2 °F 52.5 °F 45% 30.25 in 10.0 mi Calm Calm - N/A   Clear
1:55 PM 74.5 °F 53.8 °F 48% 30.23 in 10.0 mi Calm Calm - N/A   Clear
2:35 PM 75.6 °F 54.7 °F 48% 30.22 in 10.0 mi Calm Calm - N/A   Clear
2:55 PM 76.3 °F 54.0 °F 46% 30.22 in 10.0 mi Calm Calm - N/A   Clear
3:15 PM 77.7 °F 53.8 °F 43% 30.21 in 10.0 mi Calm Calm - N/A   Clear
3:35 PM 77.0 °F 49.5 °F 38% 30.20 in 10.0 mi Calm Calm - N/A   Clear
3:55 PM 78.6 °F 47.3 °F 33% 30.20 in 10.0 mi Calm Calm - N/A   Clear
4:15 PM 78.1 °F 47.5 °F 34% 30.19 in 10.0 mi Calm Calm - N/A   Clear
4:35 PM 78.3 °F 46.6 °F 33% 30.19 in 10.0 mi Calm Calm - N/A   Clear
4:55 PM 78.8 °F 48.0 °F 34% 30.19 in 10.0 mi Calm Calm - N/A   Clear
5:15 PM 79.0 °F 48.9 °F 35% 30.19 in 10.0 mi Calm Calm - N/A   Clear
5:35 PM 78.1 °F 50.4 °F 38% 30.19 in 10.0 mi Calm Calm - N/A   Clear
5:55 PM 78.3 °F 51.3 °F 39% 30.19 in 10.0 mi Calm Calm - N/A   Clear
6:15 PM 76.8 °F 50.5 °F 40% 30.19 in 10.0 mi Calm Calm - N/A   Clear
6:35 PM 77.4 °F 51.1 °F 40% 30.19 in 10.0 mi Calm Calm - N/A   Clear
6:55 PM 75.9 °F 52.7 °F 44% 30.19 in 10.0 mi Calm Calm - N/A   Clear
7:15 PM 74.8 °F 54.3 °F 49% 30.19 in 10.0 mi Calm Calm - N/A   Clear
7:35 PM 73.6 °F 54.9 °F 52% 30.19 in 10.0 mi Calm Calm - N/A   Clear
7:55 PM 71.8 °F 55.0 °F 55% 30.19 in 10.0 mi Calm Calm - N/A   Clear
8:15 PM 69.6 °F 55.0 °F 60% 30.19 in 10.0 mi Calm Calm - N/A   Clear
8:35 PM 68.9 °F 55.8 °F 63% 30.20 in 10.0 mi Calm Calm - N/A   Clear
8:55 PM 66.7 °F 56.7 °F 70% 30.21 in 10.0 mi Calm Calm - N/A   Clear
9:15 PM 64.9 °F 56.8 °F 75% 30.21 in 10.0 mi Calm Calm - N/A   Clear
9:35 PM 63.1 °F 57.2 °F 81% 30.22 in 10.0 mi Calm Calm - N/A   Clear
9:55 PM 62.2 °F 56.8 °F 82% 30.22 in 10.0 mi Calm Calm - N/A   Clear
10:15 PM 61.5 °F 56.7 °F 84% 30.22 in 10.0 mi Calm Calm - N/A   Clear
10:35 PM 61.2 °F 56.5 °F 85% 30.22 in 10.0 mi Calm Calm - N/A   Clear
10:55 PM 61.2 °F 56.7 °F 85% 30.22 in 10.0 mi Calm Calm - N/A   Clear
11:15 PM 60.6 °F 57.0 °F 88% 30.21 in 10.0 mi Calm Calm - N/A   Clear
11:35 PM 59.9 °F 56.7 °F 89% 30.20 in 10.0 mi Calm Calm - N/A   Clear